Погода в Больших Яльчиках

Россия / Чувашская Республика     55°10′19″N   48°03′28″E
темп.,
°C
ветер,
м/с
пор.,
м/с
влажн.,
%
обл.,
%
осадки,
мм/ч
давл.,
гПа
погр.,
м
6 марта, сб
сб600:00−12зюз359218 0.0 100972
03:00−11з499652 0.0 1011176
06:00−12зсз4109688 0.1 1012220
09:00−13зсз479367 0.1 1014218
12:00−9з24870 0.0 1015302
15:00−8юз25874 0.0 1014329
18:00−12зюз338814 0.0 101421
21:00−14з23957 0.0 101421
7 марта, вс
вс700:00−16з239610 0.0 101220
03:00−16зюз229834 0.0 101220
06:00−16юз239882 0.0 101120
09:00−14юз359582 0.1 1011166
12:00−9ююз489181 0.0 1008454
15:00−7ю6108691 0.0 1005729
18:00−7ю81490100 0.1 1002757
21:00−7ю81594100 0.9 998843
8 марта, пн
пн800:00−5ююз81495100 0.9 994892
03:00−6з91582100 1.9 993809
06:00−11зюз6168315 0.0 995454
09:00−10зюз7138915 0.0 997470
12:00−6юз6108561 0.0 997790
15:00−5зюз6108681 0.4 9961092
18:00−8з488986 0.4 998216
21:00−12зюз4109245 0.4 1000158
9 марта, вт
вт900:00−14з49941 0.0 1002158
03:00−14з489644 0.1 1004159
06:00−16з489795 0.1 1006171
09:00−16зсз589595 0.1 1008283
12:00−13зсз579098 0.0 1010501
15:00−12сз588999 0.0 1011601
18:00−17зсз469587 0.0 1012100
21:00−18зсз479784 0.1 1014127
10 марта, ср
ср1000:00−20зсз479959 0.0 1015107
03:00−22зсз469969 0.1 101697
06:00−22сз479885 0.0 1016135
09:00−21сз479687 0.1 1017284
12:00−19сз5792100 0.0 1019490
15:00−19сз5791100 0.1 1019520
18:00−22сз4896100 0.0 1021180
21:00−24сз349893 0.1 102369